Weather History for Alexandria, LA

Change the Weather History Date:

Wednesday, May 15, 2013

  Actual Average Record
Temperature  
Mean Temperature 70 °F 74 °F  
Max Temperature 83 °F 85 °F 94 °F (1899)
Min Temperature 57 °F 63 °F 45 °F (1907)
Cooling Degree Days 5 9  
Month to date cooling degree days 42 115  
Year to date cooling degree days 169 274  
Growing Degree Days 20 (Base 50)    
Moisture  
Dew Point 61 °F    
Average Humidity 72    
Maximum Humidity 100    
Minimum Humidity 43    
Precipitation  
Precipitation 0.00 in 0.15 in 3.20 in (1928)
Month to date precipitation 0.97 2.09  
Year to date precipitation 22.01 21.37  
Sea Level Pressure  
Sea Level Pressure 30.09 in    
Wind  
Wind Speed 7 mph (SSE)    
Max Wind Speed 17 mph    
Max Gust Speed 22 mph    
Visibility 10 miles    
Events      
T = Trace of Precipitation, MM = Missing Value Source: NWS Daily Summary

Daily Weather History Graph

Daily Weather History Graph

Search for Another Location

Airport:

Trip Planner

Search our weather history database for the weather conditions in past years. The results will help you decide how hot, cold, wet, or windy it might be!

Date:

Astronomy

May. 15, 2013 Rise Set
Actual Time 6:14 AM CDT 7:59 PM CDT
Civil Twilight 5:47 AM CDT 8:26 PM CDT
Nautical Twilight 5:15 AM CDT 8:58 PM CDT
Astronomical Twilight 4:41 AM CDT 9:32 PM CDT
Moon 10:46 AM CDT (5/15) No Moon Set
Length of Visible Light 14h 38m
Length of Day
13h 45m
Waxing Crescent, 27% of the Moon is Illuminated
May 15
Waxing Crescent
May 17
First Quarter
May 24
Full
May 31
Last Quarter
Jun 8
New

Hourly Weather History & Observations

Time (CDT) Temp. Heat Index Dew Point Humidity Pressure Visibility Wind Dir Wind Speed Gust Speed Precip Events Conditions
12:53 AM 62.1 °F - 55.9 °F 80% 30.17 in 10.0 mi South 3.5 mph - N/A   Clear
1:53 AM 61.0 °F - 55.9 °F 83% 30.16 in 10.0 mi SSE 4.6 mph - N/A   Clear
2:53 AM 60.1 °F - 57.0 °F 90% 30.16 in 10.0 mi SSE 4.6 mph - N/A   Clear
3:53 AM 61.0 °F - 57.9 °F 90% 30.15 in 10.0 mi SE 3.5 mph - N/A   Clear
4:53 AM 59.0 °F - 57.9 °F 96% 30.15 in 10.0 mi SE 4.6 mph - N/A   Clear
5:53 AM 59.0 °F - 57.9 °F 96% 30.15 in 10.0 mi SE 3.5 mph - N/A   Clear
6:53 AM 57.9 °F - 57.9 °F 100% 30.15 in 6.0 mi SSE 3.5 mph - N/A   Clear
7:53 AM 64.0 °F - 62.1 °F 93% 30.16 in 9.0 mi SSE 4.6 mph - N/A   Clear
8:53 AM 69.1 °F - 64.0 °F 84% 30.17 in 10.0 mi SE 6.9 mph - N/A   Clear
9:02 AM 69.8 °F - 64.4 °F 83% 30.15 in 10.0 mi SE 6.9 mph - N/A   Partly Cloudy
9:53 AM 73.9 °F - 64.9 °F 73% 30.16 in 10.0 mi South 5.8 mph - N/A   Clear
10:53 AM 75.9 °F - 64.0 °F 67% 30.15 in 10.0 mi SSE 8.1 mph - N/A   Clear
11:53 AM 81.0 °F 81.7 °F 61.0 °F 50% 30.14 in 10.0 mi South 10.4 mph - N/A   Clear
12:53 PM 81.0 °F 81.3 °F 59.0 °F 47% 30.11 in 10.0 mi South 10.4 mph 20.7 mph N/A   Clear
1:53 PM 82.0 °F 82.0 °F 57.9 °F 44% 30.09 in 10.0 mi South 13.8 mph 21.9 mph N/A   Clear
2:53 PM 79.0 °F - 57.0 °F 47% 30.07 in 10.0 mi SSW 12.7 mph - N/A   Clear
3:53 PM 77.0 °F - 61.0 °F 58% 30.04 in 10.0 mi South 8.1 mph - N/A   Clear
4:53 PM 75.0 °F - 62.1 °F 64% 30.03 in 10.0 mi South 6.9 mph - N/A   Scattered Clouds
5:53 PM 73.9 °F - 62.1 °F 66% 30.01 in 10.0 mi SSE 4.6 mph - N/A   Scattered Clouds
6:53 PM 73.0 °F - 62.1 °F 68% 30.00 in 10.0 mi South 3.5 mph - N/A   Overcast
7:53 PM 72.0 °F - 63.0 °F 73% 29.99 in 10.0 mi South 3.5 mph - N/A   Overcast
8:53 PM 71.1 °F - 63.0 °F 75% 29.99 in 10.0 mi South 5.8 mph - 0.00 in   Overcast
9:53 PM 69.1 °F - 62.1 °F 78% 29.99 in 10.0 mi SSE 4.6 mph - N/A   Partly Cloudy
10:53 PM 70.0 °F - 63.0 °F 78% 30.00 in 10.0 mi SSE 5.8 mph - N/A   Mostly Cloudy
11:53 PM 69.1 °F - 64.0 °F 84% 30.01 in 10.0 mi SSE 4.6 mph - N/A   Overcast